Theta_e
294 289 287 291 291 291 289 288 287 289 294 291 290 291 294 293 292 291 291 291 291 292 293 294 295 295 294 294 296 297 296 297 297 296 294 293 291 291 290 291 291 291 291 290
291 287 294 295 293 291 289 288 288 290 293 291 291 290 292 292 292 294 294 293 292 289 292 292 293 294 294 295 297 297 296 297 297 295 293 292 289 289 289 289 288 288 288 287
289 292 295 294 291 290 289 288 287 289 292 290 288 289 290 293 293 294 296 297 294 291 291 292 292 292 293 296 296 296 297 297 296 293 290 289 289 288 287 287 286 286 286 286
291 295 294 291 290 292 287 292 292 290 287 284 288 284 288 290 291 292 296 295 292 291 292 292 292 291 293 296 297 297 296 293 292 292 290 288 287 285 285 285 286 285 285 285
291 292 291 291 291 293 290 293 291 289 286 284 284 283 285 289 289 292 296 295 290 291 292 291 291 292 293 296 296 295 293 292 292 291 290 288 285 285 285 285 284 283 283 284
291 293 293 293 293 293 293 290 289 286 284 280 285 284 289 289 292 292 292 289 289 289 291 291 291 292 292 294 293 292 292 291 292 290 289 287 285 284 283 282 282 282 282 282
289 290 292 293 289 290 290 287 280 278 277 280 284 283 289 291 293 293 293 287 287 290 290 289 289 289 291 293 292 292 292 290 289 289 287 286 285 284 282 282 281 281 281 280
284 284 290 292 292 289 287 288 282 274 275 278 283 280 286 291 291 290 291 288 287 288 289 288 288 288 289 291 291 291 289 288 288 287 286 286 285 283 282 282 282 281 281 280
284 285 290 291 291 294 286 285 291 284 275 276 282 285 291 291 288 287 286 286 286 287 287 287 287 287 287 287 289 289 288 287 287 287 286 286 284 283 282 281 281 281 280 280
290 285 288 289 292 291 289 291 283 285 276 275 279 281 286 289 289 287 285 284 284 284 285 284 285 286 286 287 286 288 288 287 287 286 286 284 283 282 281 281 280 279 279 279
292 290 286 288 287 287 287 286 287 288 284 277 274 281 288 289 289 288 286 286 284 284 284 284 284 284 285 285 286 287 287 286 285 286 284 282 281 281 281 279 279 278 278 277
292 291 283 286 288 290 292 290 290 284 280 281 280 284 288 287 288 288 287 286 284 284 283 283 283 283 282 284 285 285 285 285 285 284 282 281 280 280 279 278 278 278 277 277
295 288 283 281 288 290 288 289 292 292 287 284 282 284 287 288 287 287 286 285 284 282 281 282 282 283 282 283 284 285 285 285 283 282 281 280 279 278 277 277 277 277 276 276
298 288 284 281 283 286 282 285 290 290 285 283 285 288 290 286 286 286 285 285 283 282 282 281 282 283 282 283 283 283 283 283 282 281 280 279 278 278 277 277 277 276 276 275
296 287 287 289 289 286 284 284 287 287 289 285 288 287 292 292 292 291 287 285 284 282 282 281 282 283 282 282 283 283 283 283 282 281 279 278 278 278 277 277 277 276 276 275
292 288 286 287 288 287 288 289 286 288 290 290 290 289 296 293 289 288 288 287 285 284 283 283 283 283 282 283 283 283 283 283 282 281 279 279 278 277 277 277 276 276 275 274
289 288 286 283 288 287 283 288 289 290 291 291 286 291 296 292 294 294 288 288 287 286 285 283 283 283 283 283 284 283 283 283 282 280 279 278 278 277 277 276 276 275 274 274
286 287 288 284 285 278 285 283 290 290 291 293 293 293 294 294 296 296 294 291 289 288 286 285 284 284 284 285 284 284 283 283 282 280 279 278 278 277 276 275 275 274 273 273
287 285 283 279 280 280 282 281 284 286 287 292 293 294 295 293 286 289 292 293 292 290 289 288 286 286 285 284 284 284 282 282 281 280 279 278 278 277 275 275 274 274 273 272
284 285 283 281 277 275 281 280 283 285 280 282 289 293 292 286 283 291 291 289 289 289 289 288 286 286 284 284 284 283 282 282 281 281 280 279 278 277 275 275 274 274 273 272
277 279 278 280 279 280 284 281 283 277 282 281 285 286 284 285 289 286 286 286 286 287 288 287 285 285 284 284 284 282 282 281 283 282 280 278 278 277 277 275 274 272 271 271
278 277 277 280 278 276 282 280 283 283 279 279 282 285 285 284 281 281 283 282 284 284 284 285 283 282 282 283 283 282 281 283 283 281 279 278 277 277 276 275 273 271 270 269
277 281 278 281 280 281 281 280 281 280 280 279 281 284 285 282 281 281 280 280 281 281 281 280 280 278 279 281 282 281 281 280 279 278 278 277 277 276 275 274 272 269 268 267
277 279 278 280 281 282 282 281 281 281 280 280 280 282 282 281 280 280 280 279 280 279 279 277 277 276 276 276 279 279 277 278 277 277 276 275 275 273 272 273 271 269 266 265
277 279 276 277 280 280 281 281 282 281 280 279 279 280 280 280 278 279 278 278 279 279 276 276 276 276 275 275 275 275 275 276 276 275 273 272 273 271 269 270 268 268 268 268
276 277 277 276 282 282 282 281 282 281 280 279 279 277 278 279 279 277 277 278 276 275 273 274 272 272 272 272 272 271 274 276 275 272 270 271 271 269 269 267 262 273 271 273
Wind_Speed
0 4 8 14 10 4 4 5 5 5 5 4 9 14 16 10 7 9 11 12 14 15 8 7 7 7 7 6 8 8 10 9 8 8 8 6 6 7 8 8 11 10 10 10
3 9 15 2 7 7 4 5 10 8 5 8 10 14 11 9 12 15 18 17 17 10 12 9 9 8 8 9 9 9 10 10 8 5 6 5 6 7 7 8 11 9 10 10
10 8 6 10 6 6 7 10 5 8 6 4 7 13 12 10 11 12 18 18 15 19 18 13 12 10 8 11 11 11 11 11 8 9 9 9 10 8 7 9 9 8 9 10
8 7 5 5 6 9 8 7 7 6 2 6 3 21 6 8 13 13 21 16 12 16 14 14 14 11 12 11 10 12 11 10 11 12 11 14 10 12 7 8 9 8 8 9
9 6 8 9 8 9 6 5 5 2 2 4 4 5 2 3 7 13 20 12 12 16 19 18 15 14 11 12 12 11 11 11 11 11 10 10 11 11 8 9 13 10 7 8
5 1 5 9 3 7 6 6 6 5 2 9 10 9 31 6 16 9 6 6 15 16 15 13 11 12 11 11 11 11 14 12 11 9 10 12 16 16 13 11 10 7 6 5
1 6 3 5 5 2 5 7 2 4 0 11 4 10 19 9 11 8 9 9 10 14 15 15 15 13 14 15 13 12 13 12 12 12 12 13 14 14 14 13 10 11 7 5
6 5 11 7 12 9 8 10 7 8 5 5 3 11 9 6 7 8 7 9 10 12 13 15 16 14 15 16 15 14 14 13 14 13 14 13 13 9 9 10 9 8 8 7
7 6 2 3 2 12 5 7 7 3 3 1 7 9 12 10 7 3 2 7 11 11 11 13 12 13 13 14 16 16 16 15 15 15 14 14 11 12 11 11 9 8 8 7
5 2 0 1 4 2 8 7 4 2 4 7 6 8 13 7 10 6 7 9 8 8 11 11 12 13 10 10 9 12 14 16 16 15 13 12 12 11 11 11 11 11 9 9
5 5 3 3 7 11 4 4 3 4 5 5 3 9 8 6 6 9 10 9 11 13 13 13 11 10 12 10 12 12 13 15 14 13 12 12 11 11 10 10 10 10 10 9
6 3 5 9 1 1 2 8 7 5 6 5 1 17 2 3 8 7 7 8 8 9 10 10 10 10 9 11 14 14 13 15 13 12 14 13 13 11 11 10 9 9 10 7
7 2 2 6 1 2 7 7 13 12 3 10 6 13 2 3 5 3 5 7 8 9 8 8 10 12 12 11 12 13 14 14 13 13 14 13 13 13 12 11 10 9 9 8
12 6 7 9 5 6 5 8 14 17 9 5 20 20 13 1 2 3 4 7 10 12 14 13 12 12 12 13 13 13 13 11 13 12 12 13 12 12 11 11 10 9 8 8
14 11 11 15 9 5 6 6 18 24 27 13 23 18 33 7 8 9 8 9 12 14 16 17 17 16 15 14 13 12 12 13 13 14 13 13 12 10 11 11 10 8 8 7
2 12 8 16 14 12 18 19 15 18 23 24 26 28 20 5 3 5 11 14 13 15 15 15 15 16 17 17 16 16 16 14 14 14 13 11 11 11 11 11 10 10 8 8
6 6 7 23 11 12 15 35 20 23 18 18 22 30 30 13 15 18 10 12 15 16 16 17 18 17 16 17 17 17 15 13 14 13 12 12 13 13 12 11 11 10 9 8
4 11 10 10 7 15 9 2 14 26 25 23 23 24 23 18 17 16 12 15 16 15 17 18 17 17 17 17 17 16 15 16 15 15 14 14 14 13 12 11 10 9 7 8
7 4 3 4 8 5 4 6 9 11 15 20 22 27 26 10 0 10 10 12 17 19 19 18 19 20 18 18 17 17 17 17 17 17 17 16 15 14 13 12 11 8 8 6
2 1 3 1 4 8 7 4 5 5 10 7 13 22 16 6 4 12 5 6 5 6 6 9 11 13 17 19 18 18 18 18 20 19 18 16 16 15 15 14 12 5 6 6
5 3 9 9 5 4 7 4 4 8 10 4 4 7 7 7 7 2 2 4 2 4 8 8 10 14 17 16 19 21 20 22 20 15 15 16 15 16 15 13 8 10 8 7
9 8 5 5 6 10 7 3 11 3 1 1 2 3 6 3 1 2 4 4 4 4 4 6 8 9 8 14 17 16 19 15 15 17 17 17 16 13 11 14 9 10 9 8
4 7 8 10 8 3 7 4 1 3 1 2 3 2 4 6 4 4 4 3 3 2 4 3 6 8 6 11 15 17 13 14 14 15 16 15 15 13 12 12 11 9 9 8
4 2 2 3 5 6 6 6 3 5 3 0 1 1 3 5 6 5 5 5 4 3 4 3 7 7 6 4 7 8 10 13 14 14 13 12 13 11 10 8 8 8 9 8
4 7 6 5 6 5 9 8 5 7 3 4 2 4 3 4 3 3 3 5 5 5 2 4 6 6 7 6 6 8 11 13 13 12 10 11 10 11 9 8 10 10 9 12
6 7 6 6 7 4 4 2 5 8 8 7 5 2 2 3 5 3 4 4 3 4 3 3 3 5 5 6 6 6 9 13 13 10 9 9 9 8 8 8 4 16 11 18
Wind_Direction
228 122 202 210 200 202 159 189 229 242 230 195 227 238 248 213 230 235 227 214 210 206 162 162 157 147 140 143 145 143 135 134 128 126 118 103 108 101 84 79 81 82 83 82
71 229 223 183 190 206 238 253 260 298 250 187 261 250 242 209 221 219 224 222 208 171 166 169 161 159 163 159 157 151 147 143 140 130 113 117 114 95 97 92 77 72 78 83
178 213 169 176 176 183 225 223 238 226 310 249 297 266 234 244 218 227 235 230 204 188 172 168 171 171 164 166 165 159 156 148 140 125 115 109 103 99 109 96 89 69 80 80
230 232 161 163 200 175 234 199 199 240 310 259 100 292 227 228 232 225 237 227 181 174 168 168 171 171 174 169 164 160 155 140 137 139 140 139 137 130 120 110 107 91 81 84
227 183 182 200 190 168 231 172 197 220 243 338 171 297 55 140 240 241 243 231 183 180 171 171 172 170 170 160 162 158 144 141 139 143 148 134 123 118 121 111 107 100 82 76
225 100 150 193 137 168 146 82 48 57 72 265 180 178 284 209 232 251 281 179 172 170 168 159 155 155 161 157 155 153 150 145 146 142 138 137 136 138 134 128 118 110 99 86
297 215 196 152 106 81 118 103 304 329 12 249 305 212 251 304 287 229 261 194 176 164 159 155 156 159 161 163 160 157 155 149 142 139 137 139 137 135 132 131 131 131 124 115
174 284 167 189 192 178 187 158 165 216 211 280 336 243 254 244 271 301 261 165 155 164 162 161 162 160 163 163 162 158 152 145 142 142 141 143 140 139 138 136 135 129 129 125
184 264 41 175 131 153 195 202 196 66 94 323 227 290 283 257 277 286 161 136 165 165 161 157 157 160 162 162 163 158 152 151 155 152 146 145 143 141 141 134 129 128 125 125
209 231 325 241 112 28 164 164 94 90 210 236 271 262 238 278 260 212 190 186 173 149 156 159 163 162 162 163 152 152 154 155 153 150 149 144 144 140 137 135 135 137 131 128
174 160 240 144 208 177 150 179 202 136 169 197 286 257 211 234 279 231 209 189 182 172 168 169 169 165 158 156 156 153 152 150 149 148 144 140 141 139 137 139 139 138 134 137
202 157 200 208 206 314 340 183 138 183 209 233 152 267 126 230 283 239 203 178 169 171 171 167 161 161 157 160 164 160 157 153 156 150 145 145 142 141 141 142 141 142 140 138
162 229 179 326 31 313 214 200 199 205 60 213 185 258 27 14 9 322 181 158 155 158 160 163 164 170 169 169 171 165 161 157 154 152 150 148 149 150 149 148 147 143 140 137
129 190 205 215 188 131 177 213 209 197 218 186 230 264 248 240 294 246 198 174 169 173 175 174 178 181 177 174 172 169 163 159 154 152 152 152 157 154 150 147 146 144 144 141
169 224 208 243 226 183 192 213 215 208 226 211 252 231 255 221 242 244 185 185 178 182 189 189 183 180 175 175 175 170 165 162 160 158 162 165 155 151 146 145 145 143 141 140
226 228 174 250 238 232 250 240 222 226 236 233 252 258 253 261 303 225 203 192 194 201 199 190 185 182 183 178 177 174 173 172 164 165 167 159 151 151 153 152 152 150 147 146
198 226 222 251 234 225 229 236 226 233 228 226 236 247 263 248 242 243 226 201 204 198 191 189 188 186 183 185 180 180 171 162 169 165 162 163 160 162 163 158 155 160 158 149
191 220 214 242 143 224 236 75 225 227 233 229 240 257 255 247 253 251 231 209 209 197 189 189 185 181 186 181 181 171 166 167 170 170 168 172 170 167 161 161 165 157 156 165
194 142 240 190 218 325 262 196 161 175 245 230 231 247 254 266 3 263 232 213 206 196 194 194 186 184 173 175 172 168 168 171 176 181 179 176 171 165 165 171 171 166 160 168
114 311 204 203 216 211 236 252 160 107 270 208 211 236 256 123 219 261 254 190 193 192 191 178 169 180 170 173 166 169 176 179 189 188 181 171 169 171 175 175 169 153 166 172
158 173 208 228 252 269 251 191 138 134 247 195 188 224 164 192 220 286 357 53 106 157 167 152 154 180 186 172 169 179 180 193 188 172 172 176 174 177 178 170 164 158 161 160
166 163 181 200 240 255 148 84 177 197 90 153 239 221 196 162 152 51 62 66 72 112 121 155 153 169 164 166 174 183 193 186 179 175 175 178 176 176 170 170 162 158 159 165
216 191 179 185 205 211 229 202 142 109 57 348 300 264 182 147 195 168 134 111 77 100 105 95 135 128 144 166 177 182 182 164 164 168 176 177 174 174 172 169 168 158 163 174
283 134 174 86 225 232 233 219 205 168 175 161 175 352 179 170 185 185 162 162 161 151 139 119 125 141 150 152 167 168 149 153 159 169 170 167 171 167 167 168 173 171 175 181
185 139 169 268 269 289 259 225 190 208 197 164 221 167 206 162 220 198 189 181 175 163 144 149 152 158 166 153 147 144 150 153 165 169 168 170 174 175 169 183 179 192 199 190
188 171 174 216 218 188 241 52 171 177 193 182 186 229 226 191 215 194 207 197 166 166 140 144 143 137 161 155 151 148 154 163 161 164 169 177 173 177 178 180 180 215 202 205